TimeEDT,TemperatureF,Dew PointF,Humidity,Sea Level PressureIn,VisibilityMPH,Wind Direction,Wind SpeedMPH,Gust SpeedMPH,PrecipitationIn,Events,Conditions,WindDirDegrees,DateUTC
12:14 AM,50.4,44.6,81,29.76,10.0,WSW,8.1,-,N/A,,Overcast,240,2013-10-07 04:14:00
12:35 AM,50.2,43.9,79,29.75,10.0,WSW,8.1,-,N/A,,Overcast,240,2013-10-07 04:35:00
12:54 AM,49.5,42.4,77,29.75,10.0,WSW,9.2,-,N/A,,Overcast,240,2013-10-07 04:54:00
1:15 AM,49.1,42.3,77,29.75,10.0,WSW,9.2,17.3,N/A,,Overcast,240,2013-10-07 05:15:00
1:35 AM,48.2,41.2,77,29.75,10.0,WSW,12.7,-,N/A,,Mostly Cloudy,250,2013-10-07 05:35:00
1:54 AM,46.8,40.5,79,29.75,10.0,WSW,10.4,-,N/A,,Scattered Clouds,250,2013-10-07 05:54:00
2:15 AM,44.8,41.2,87,29.75,10.0,WSW,6.9,-,N/A,,Clear,240,2013-10-07 06:15:00
2:35 AM,44.8,41.0,87,29.75,10.0,SW,4.6,-,N/A,,Clear,220,2013-10-07 06:35:00
2:55 AM,44.4,41.0,88,29.76,10.0,SW,8.1,-,N/A,,Clear,230,2013-10-07 06:55:00
3:15 AM,45.0,41.4,87,29.76,10.0,SW,6.9,-,N/A,,Mostly Cloudy,220,2013-10-07 07:15:00
3:34 AM,44.6,41.4,88,29.75,10.0,SW,8.1,-,N/A,,Overcast,230,2013-10-07 07:34:00
3:55 AM,43.7,40.8,90,29.75,10.0,SW,8.1,-,N/A,,Scattered Clouds,230,2013-10-07 07:55:00
4:15 AM,43.5,40.6,90,29.75,10.0,SW,6.9,-,N/A,,Clear,230,2013-10-07 08:15:00
4:34 AM,42.8,40.5,91,29.75,10.0,SW,5.8,-,N/A,,Clear,230,2013-10-07 08:34:00
4:55 AM,42.4,40.5,93,29.76,10.0,SW,5.8,-,N/A,,Clear,220,2013-10-07 08:55:00
5:15 AM,42.1,40.3,93,29.75,10.0,SW,4.6,-,N/A,,Clear,230,2013-10-07 09:15:00
5:34 AM,41.9,40.3,94,29.76,10.0,SW,5.8,-,N/A,,Clear,220,2013-10-07 09:34:00
5:55 AM,42.3,40.5,93,29.76,10.0,SW,5.8,-,N/A,,Clear,220,2013-10-07 09:55:00
6:15 AM,42.1,40.5,94,29.77,10.0,SW,5.8,-,N/A,,Clear,220,2013-10-07 10:15:00
6:34 AM,42.1,40.5,94,29.77,10.0,SSW,6.9,-,N/A,,Clear,210,2013-10-07 10:34:00
6:55 AM,41.9,40.5,95,29.78,10.0,SW,5.8,-,N/A,,Clear,220,2013-10-07 10:55:00
7:15 AM,41.5,40.5,96,29.79,10.0,SW,6.9,-,N/A,,Scattered Clouds,230,2013-10-07 11:15:00
7:34 AM,42.4,41.2,95,29.79,10.0,SW,5.8,-,N/A,,Scattered Clouds,220,2013-10-07 11:34:00
7:55 AM,42.3,41.0,95,29.79,10.0,SW,4.6,-,N/A,,Scattered Clouds,220,2013-10-07 11:55:00
8:15 AM,43.0,41.9,96,29.79,10.0,SW,9.2,-,N/A,,Scattered Clouds,230,2013-10-07 12:15:00
8:34 AM,44.6,43.2,95,29.80,10.0,SW,10.4,-,N/A,,Mostly Cloudy,230,2013-10-07 12:34:00
8:55 AM,46.0,43.5,91,29.80,10.0,WSW,11.5,18.4,N/A,,Overcast,240,2013-10-07 12:55:00
9:14 AM,45.9,43.5,92,29.81,10.0,WSW,11.5,-,N/A,,Overcast,240,2013-10-07 13:14:00
9:35 AM,45.7,43.5,92,29.82,10.0,SW,9.2,-,N/A,,Overcast,230,2013-10-07 13:35:00
9:55 AM,46.2,43.9,92,29.82,10.0,WSW,6.9,-,N/A,,Overcast,240,2013-10-07 13:55:00
10:14 AM,48.7,44.8,86,29.83,10.0,WSW,11.5,20.7,N/A,,Overcast,240,2013-10-07 14:14:00
10:35 AM,49.1,44.6,84,29.83,10.0,WSW,12.7,20.7,N/A,,Overcast,240,2013-10-07 14:35:00
10:54 AM,51.4,45.9,81,29.83,10.0,WSW,12.7,19.6,N/A,,Scattered Clouds,240,2013-10-07 14:54:00
11:15 AM,52.2,45.1,77,29.84,10.0,West,13.8,23.0,N/A,,Mostly Cloudy,260,2013-10-07 15:15:00
11:35 AM,54.3,45.9,73,29.84,10.0,WSW,16.1,20.7,N/A,,Scattered Clouds,240,2013-10-07 15:35:00
11:54 AM,54.3,45.5,72,29.85,10.0,West,16.1,24.2,N/A,,Mostly Cloudy,260,2013-10-07 15:54:00
12:15 PM,53.4,44.8,73,29.86,10.0,West,17.3,23.0,N/A,,Overcast,260,2013-10-07 16:15:00
12:35 PM,54.0,44.8,71,29.87,10.0,West,18.4,27.6,N/A,,Overcast,260,2013-10-07 16:35:00
12:54 PM,54.7,45.7,72,29.88,10.0,West,20.7,25.3,N/A,,Overcast,260,2013-10-07 16:54:00
1:15 PM,55.0,46.4,73,29.88,10.0,WSW,18.4,27.6,N/A,,Overcast,250,2013-10-07 17:15:00
1:35 PM,52.5,48.6,86,29.89,2.5,West,16.1,24.2,N/A,Rain,Rain,260,2013-10-07 17:35:00
1:54 PM,51.1,49.5,94,29.90,2.0,WSW,15.0,23.0,N/A,,Light Drizzle,250,2013-10-07 17:54:00
2:15 PM,51.8,49.8,93,29.90,10.0,WSW,13.8,20.7,N/A,,Overcast,250,2013-10-07 18:15:00
2:35 PM,53.6,49.6,86,29.90,10.0,WSW,19.6,24.2,N/A,,Overcast,250,2013-10-07 18:35:00
2:54 PM,53.6,49.5,86,29.91,10.0,West,16.1,19.6,N/A,,Overcast,260,2013-10-07 18:54:00
3:15 PM,55.8,50.4,82,29.91,10.0,West,17.3,21.9,N/A,,Overcast,280,2013-10-07 19:15:00
3:35 PM,56.8,49.3,76,29.92,10.0,West,16.1,24.2,N/A,,Mostly Cloudy,270,2013-10-07 19:35:00
3:54 PM,59.5,49.6,70,29.93,10.0,West,13.8,27.6,N/A,,Mostly Cloudy,260,2013-10-07 19:54:00
4:15 PM,58.6,47.3,66,29.94,10.0,WNW,12.7,23.0,N/A,,Mostly Cloudy,290,2013-10-07 20:15:00
4:34 PM,59.5,45.7,60,29.94,10.0,West,19.6,24.2,N/A,,Mostly Cloudy,280,2013-10-07 20:34:00
4:55 PM,59.7,43.9,56,29.96,10.0,WNW,11.5,19.6,N/A,,Scattered Clouds,300,2013-10-07 20:55:00
5:15 PM,57.4,43.3,59,29.96,10.0,WNW,11.5,-,N/A,,Clear,290,2013-10-07 21:15:00
5:34 PM,59.0,42.8,55,29.97,10.0,WNW,16.1,21.9,N/A,,Clear,290,2013-10-07 21:34:00
5:55 PM,58.5,43.0,56,29.97,10.0,West,13.8,-,N/A,,Clear,280,2013-10-07 21:55:00
6:14 PM,57.6,43.7,60,29.99,10.0,WNW,9.2,-,N/A,,Clear,290,2013-10-07 22:14:00
6:35 PM,57.0,43.0,59,29.99,10.0,WNW,10.4,-,N/A,,Clear,290,2013-10-07 22:35:00
6:55 PM,55.8,43.5,63,30.00,10.0,WNW,6.9,-,N/A,,Clear,300,2013-10-07 22:55:00
7:14 PM,53.8,44.1,70,30.02,10.0,WNW,6.9,-,N/A,,Clear,290,2013-10-07 23:14:00
7:35 PM,51.4,43.9,75,30.03,10.0,West,4.6,-,N/A,,Clear,280,2013-10-07 23:35:00
7:55 PM,49.3,43.3,80,30.03,10.0,West,4.6,-,N/A,,Clear,280,2013-10-07 23:55:00
8:14 PM,48.4,43.7,84,30.04,10.0,WSW,4.6,-,N/A,,Clear,250,2013-10-08 00:14:00
8:35 PM,48.9,44.1,83,30.06,10.0,SW,3.5,-,N/A,,Clear,220,2013-10-08 00:35:00
8:55 PM,47.1,43.7,88,30.07,10.0,Calm,Calm,-,N/A,,Clear,0,2013-10-08 00:55:00
9:14 PM,45.9,43.7,92,30.08,10.0,Calm,Calm,-,N/A,,Clear,0,2013-10-08 01:14:00
9:35 PM,44.4,43.5,97,30.09,10.0,Calm,Calm,-,N/A,,Clear,0,2013-10-08 01:35:00
9:55 PM,44.1,43.2,97,30.10,10.0,Calm,Calm,-,N/A,,Clear,0,2013-10-08 01:55:00
10:14 PM,43.9,43.0,97,30.11,10.0,Calm,Calm,-,N/A,,Clear,0,2013-10-08 02:14:00
10:35 PM,43.2,42.4,97,30.11,10.0,Calm,Calm,-,N/A,,Clear,0,2013-10-08 02:35:00
10:55 PM,42.6,41.9,97,30.11,10.0,SSE,3.5,-,N/A,,Clear,160,2013-10-08 02:55:00
11:14 PM,42.1,41.7,99,30.11,10.0,SSE,3.5,-,N/A,,Clear,160,2013-10-08 03:14:00
11:35 PM,43.0,42.4,98,30.12,10.0,SSE,3.5,-,N/A,,Clear,160,2013-10-08 03:35:00
11:54 PM,44.1,43.3,97,30.13,10.0,South,3.5,-,N/A,,Clear,170,2013-10-08 03:54:00